[Date Prev][Date Next][Thread Prev][Thread Next][Date Index][Thread Index]

[jamsat-news:1741] jas2info #287



========================   ºÇ¿·¾ðÊó   ==============================

        Last updated ¡¡20Aug2002 ¡¡20:10(JST)   #287

====================================================================
   
£±¡Ë¥¢¥Þ¥Á¥å¥¢ÄÌ¿®±ÒÀ±¾ðÊ󡢣ƣϥ·¥ê¡¼¥º¤Îµ°Æ»Í×ÁÇ¡¢¥Æ¥ì¥á¥È¥ê¡¢£Ñ£Ó£Ï¤Î
¡¡¡¡¡¡¾õ¶·Åù¤ò¤Þ¤È¤á¤Æ¤ß¤Þ¤·¤¿¡¥
¡¡¡¡¡¡
¡¡£Æ£Ï¡Ý£²£¹¤Î£²£°£°£²Ç¯£¸·î£²£°Æü¡Ê²Ð¡Ë¤Î£±£¸¡§£µ£±¡Ê£Ê£Ó£Ô¡Ë¤Î¥Ñ¥¹¤Ç¤Ï
£Ê£Á£Ò£Ì¤Î¥Û¡¼¥à¥Ú¡¼¥¸¤Î¤È¤¦¤ê¥¢¥Ê¥í¥°±¿ÍѤǤ·¤¿¡£¡¡º£Æü¤Î´Ñ¬¤·¤¿
¥Æ¥ì¥á¥È¥ê¡¼¤ÈºÇ½ª¹Ô¤ÎʬÀÏ·ë²Ì¤òÊó¹ð¤·¤Æ¤ª¤­¤Þ¤¹¡£

AS29668C  20Aug2002
18:51-19:07(JST)
AOS   MEL  LOS  Elev
358   294  230  27.0
Freq. 435.802-.787Hz
(JAS-2 No.106 B 1720-2550)

HI HI AE 07 88 55 00 D5 72 18 85 2A 35       55 92 8D 9A 59 8E 8B 8D 8D 84 
HI HI AE 07 88 55 00 D5 72 18 85 2A 36 99 75 4A 91 8D 9A 65 8E 8B 8D 8D 84 
HI HI AE 07 88 55 00 D4 72 18 09 2A 3A 9A 73 4D 91 8D 9A 70 8E 8B 8D 8D 84 
HI HI AE 07 88 55 00 D4 72 18 09 2A 3E 9D 73 50 91 8D 9A 64 8E 8B 8C 8D 84 
HI HI AE 07 88 55 00 D4 72 18 09 2A 42 9F 71 4E 91 8C 99 73 8E 8A 8C 8E 84 
HI HI AE 07 88 55 00 D4 72 18 08 2A 46 A0 70 50 90 6F 99 62 8E 8A 8C 8E 84 
HI HI AE 07 88 55 00 D4 72 18 09 2A 4A A2 6E 4F 90 8C 98 87 8E 8A 8D 8E 84 
HI HI AE 07 88 55 00 D4 72 18 09 2A 4E A3 6B 51 8F 8B 98 65 8E 8A 8D 8E 84 
HI HI AE 07 88 55 00 D4 72 18 09 2A 51 A3 6A 52 8E 8B 97 84 8E 8A 8D 8E 84 
HI HI AE 07 88 55 00 D4 72 18 09 2A 55 A3 6A 53 8E 8A 97 8F 8D 8A 8D 8E 84 
HI HI AE 07 88 55 00 D4 72 18 09 2A 58 A4 68 54 8E 8A 97 70 8D 8A 8D 8E 84 
HI HI AE 07 88 55 00 D4 72 18 09 2A 5B A4 69 52 8E 8A 96 75 8D 8A 8D 8E 84 
HI HI AE 07 88 55 00 D4 72 18 09 2A 5E A3 6B 55 8E 8A 97 81 8D 89 8D 8E 84 
HI HI AE 07 88 55 00 D4 72 18 09 2A 60 A3 6B 55 8E 8A 97 85 8D 89 8D 8E 84 
HI HI AE 07 88 55 00 D4 72 18 09 2A 62 A3 6A 52 8E 8A 97 77 8D 89 8D 8E 84 
HI HI AE 07 88 55 00 D4 72 18 09 2A 64 A2 6A 52 8E 8A 97 70 8D 89 8D 8E 84 
HI HI AE 07 88 55 00 D5 72 18 09 2A 65 A2 68 52 8E 8A 97 5E 8D 89 8D 8E 84 
HI HI AE 07 8T 55 00 D4 72 18 09 2A 66 A1 68 53 8E 8A 97 6F 8D 89 8D 8E 84 
HI HI AE 07 88 55 00 D4 72 18 09 2A 67 A0 68 53 8E 8A 97 75 8D 89 8D 8E 84 
HI HI AE 07 88 55 00 D4 72 18 09 2A 67 9F 6A 51 8E 8A 97 67 8D 89 8D 8F 84 
 
AS29667C  20Aug2002
17:05-17:25(JST)
AOS   MEL  LOS  Elev
 17   101  183  59.5
Freq. 435.803-.786Hz
(JAS-2 No.106 B 480-1720)

HI HI AE 07 88 55 00 D4 14 A9 09 06 96 7E 5E 5C 89 86 92 82 8B 8D 90 8A 84 
HI HI AE 07 88 55 00 D4 14 A9 09 06 92 7E 5D 58 89 86 92 7D 8B 8E 90 8A 84 
HI HI AE 07 88 55 00 D4 14 A9 09 06 94 74 60 58 89 86 93 7B 8B 8E 90 8A 84 
HI HI AE 07 88 55 00 D4 14 A9 09 06 95 6B 61 56 8A 86 93 79 8B 8E 90 8A 84 
HI HI AE 07 88 55 00 D4 14 A9 09 06 95 62 5F 58 8A 86 93 67 8B 8E 90 8A 84 
HI HI AE 07 88 55 00 D4 14 A9 09 06 94 5A 60 57 8A 87 93 79 8B 8E 90 8A 84 
HI HI AE 07 88 55 00 D4 14 A9 09 06 94 52 60 58 8A 87 93 7A 8B 8E 90 8A 84 
HI HI AE 07 88 55 00 D4 14 A9 09 06 90 4C 61 57 8A 87 94 85 8C 8E 90 8A 85 
HI HI AE 07 88 55 00 D4 14 A9 09 06 8E 47 5E 56 8A 87 94 6C 8C 8E 8F 8A 84 
HI HI AE 07 88 55 00 D4 14 A8 09 06 8B 43 5E 58 8A 87 93 73 8C 8E 8F 8A 84 
HI HI AE 07 88 55 00 D4 14 A9 09 06 88 40 5F 57 8A 87 94 70 8C 8E 8F 8A 84 
HI HI AE 07 88 55 00 D4 14 A9 09 06 86 3E 63 56 8B 87 94 7F 8C 8E 8F 8A 85 
HI HI AE 07 88 55 00 D4 14 A9 09 06 83 3D 65 5A 8C 88 95 7D 8C 8F 8F 8A 84 
HI HI AE 07 88 55 00 D4 14 A9 09 06 81 3C 65 5C 8C 89 95 6B 8C 8F 8F 8A 85 
HI HI AE 07 88 55 00 D4 14 A9 09 06 7E 3D 65 55 8D 89 96 5A 8D 8F 8F 8A 85 
HI HI AE 07 88 55 00 D4 14 A9 09 06 7D 3F 69 52 8F 8B 97 68 8D 8F 8F 8A 85 
HI HI AE 07 88 55 00 D4 14 A9 09 06 7B 41 6B 51 90 8C 99 60 8D 8F 8E 8A 85 
HI HI AE 07 88 55 00 D4 14 A9 09 06 7B 44 6E 52 91 8D 9A 69 8D 8F 8E 8A 85 
HI HI AE 07 88 55 00 D4 14 A9 09 06 7A 48 70 4F 92 8D 9B 7B 8D 8F 8E 8A 85 
HI HI AE 07 88 55 00 D4 14 A9 09 06 72 47 70 4C 92 8E 9B 77 8D 8F 8E 8A 85 
HI HI AE 07 88 55 00 D4 14 A9 09 06 7B 50 74 4E 92 8E 9B 6D 8D 8F 8E 8A 84 
HI HI AE 07 85 55 00 D4 14 A9 09 06 7C 54 74 4D 92 8E 9B 5C 8D 8F 8D 8A 84 
HI HI AE 07 88 55 00 D4 14 A9 09 06 7E 5A 75 4C 92 8E 9B 78 8D 8E 8D 8A 84 
HI HI AE 07 88 55 00 D4 14 A9 09 06 7F 5F 76 4C 92 8E 9B 77 8E 8E 8D 8B 84 
HI HI AE 07 88 55 00 D4 14 A9 09 06 82 64 76 4B 92 8E 9B 6E 8E 8E 8D 8B 84 
HI HI AE 07 88 55 00 D4 14 A9 09 06 84 6A 76 4C 92 8E 9B 65 8E 8E 8D 8B 84 
HI HI AE 07 88 55 00 D4 14 A9 09 06 87 6F 76 4E 92 8D 9B 74 8E 8E 8D 8B 84 
     
------------------------¡¡£Æ£Ï-£²£¹¤Îµ°Æ»Í×ÁÇ¡¡------------------------------        
 
¡¡¡¡¢£ µ°Æ»Í×ÁÇ£±¡§¡Öjamsat¡Ýkeps¡§£±£²£³£²¡×¤è¤ê         
¡¡¡¡¡¡¡¡¡¡¡¡¡¡¡¡¡¡¡¡SB KEPS @ AMSAT  $ORB02220.N
¡¡¡¡¡¡¡¡¡¡¡¡¡¡¡¡¡¡¡¡2Line Orbital Elements 02220.AMSAT

HR AMSAT ORBITAL ELEMENTS FOR AMATEUR SATELLITES IN NASA FORMAT
FROM WA5QGD FORT WORTH,TX August 8, 2002
SEND SUBSCRIBE/UNSUBSCRIBE TO majordomo@amsat.org ONLY
BID: ORB02220.N

¡¡DECODE 2-LINE ELSETS WITH THE FOLLOWING KEY:
¡¡1 AAAAAU 00  0  0 BBBBB.BBBBBBBB  .CCCCCCCC  00000-0  00000-0 0  DDDZ
¡¡2 AAAAA EEE.EEEE FFF.FFFF GGGGGGG HHH.HHHH III.IIII JJ.JJJJJJJJKKKKKZ
¡¡KEY: A-CATALOGNUM B-EPOCHTIME C-DECAY D-ELSETNUM E-INCLINATION F-RAAN
¡¡G-ECCENTRICITY H-ARGPERIGEE I-MNANOM J-MNMOTION K-ORBITNUM Z-CHECKSUM

FO-29
1 24278U 96046B   02219.88773374 -.00000034  00000-0  17784-5 0 05265
2 24278 098.5169 032.7507 0351391 001.3903 358.8136 13.52846371294981

 ¢£ µ°Æ»Í×ÁÇ£²¡§¡Öjamsat¡Ýkeps¡§£±£²£³£±¡×¤è¤ê¡¡
¡¡¡¡¡¡¡¡¡¡¡¡¡¡SB KEPS @ AMSAT  $ORB02220.O
¡¡¡¡¡¡¡¡¡¡¡¡¡¡Orbital Elements  02220.OSCAR

HR AMSAT ORBITAL ELEMENTS FOR OSCAR SATELLITES
FROM WA5QGD FORT WORTH,TX August 8, 2002
SEND SUBSCRIBE/UNSUBSCRIBE TO majordomo@amsat.org ONLY
BID: ORB02220.O
TO ALL RADIO AMATEURS BT

Satellite: FO-29
Catalog number: 24278
Epoch time:      02219.88773374
Element set:    0526
Inclination:      098.5169 deg
RA of node:       032.7507 deg
Eccentricity:    0.0351391
Arg of perigee:   001.3903 deg
Mean anomaly:     358.8136 deg
Mean motion:   13.52846371 rev/day
Decay rate:       -3.4e-07 rev/day^2
Epoch rev:           29498
Checksum:              333

-------------------¡¡¡¡FO-29¡ÊJAS-2)¤Î¥Æ¥ì¥á¥È¥ê¤Ë´Ø¤¹¤ë¾ðÊó¡¡¡¡----------------------¡¡
¡¡
£²¡Ë¾åµ­£²£°£°£²Ç¯£¸·î£²£°Æü¡Ê²Ð¡Ë¤Î¥Æ¥ì¥á¥È¥ê¤ÎºÇ½ª¹Ô¤òʬÀϤ·¤Æ¤ª¤­¤Þ¤¹.

AS29668C  20Aug2002
18:51-19:07(JST)
AOS   MEL  LOS  Elev
358   294  230  27.0
Freq. 435.802-.787Hz
(JAS-2 No.106 B 1720-2550)

HI HI AE 07 88 55 00 D4 72 18 09 2A 67 9F 6A 51 8E 8A 97 67 8D 89 8D 8F 84 

¥Æ¥ì¥á¥È¥ê¡¡  Æâ¡¡ÍÆ¡¡ ¡¡      ´¹»»»»ÃÍ¡¡Ã± °Ì
£³£Ã	¼§µ¤¥»¥ó¥µ¡¼£Ú¼´=	50490.2	[nT]
£³£Ä	¼§µ¤¥»¥ó¥µ£Ø¼´	=	77941.2	[nT]
£´£Á	ÂÀÍÛÅÅÃÓȯÀ¸ÅÅή=	 1039.2	[mA]
£´£Â	£Â½¼ÊüÅÅÅÅή	=	 -412.4	[mA]
£´£Ã	£Âü»ÒÅÅ°µ	=	   15.3	[V]
£´£Ä	£ÂÃæ´Öü»ÒÅÅ°µ	=	    6.6	[V]
£µ£Á	¥Ð¥¹ÅÅ°µ	=	   14.8	[V]
£µ£Â	£Ê£Ô£ÁÁ÷¿®ÅÅÎÏ	=	  571.4	[mW]
£µ£Ã 	¹½Âβ¹ÅÙ£±	=	   27.1	[¡î]
£µ£Ä	¹½Âβ¹ÅÙ£²	=	   28.7	[¡î]
£¶£Á	¹½Âβ¹ÅÙ£³	=	   27.1	[¡î]
£¶£Â	¹½Âβ¹ÅÙ£´	=	   26.3	[¡î]
£¶£Ã	£Â¥»¥ë²¹ÅÙ	=	   30.6	[¡î]

 ==========================¡¡FO-29¡Ê¤Õ¤¸£³¹æ¡Ë¤Î¥Æ¥ì¥á¥È¥êʬÀÏ¡¢£Ñ£Ó£Ï¾ðÊóÅù¡¡=====================
   
¡¡£³)[jamsat-bb:

 =================================================================================================
¡¡
¡¡£´¡Ë£Ê£Á£Ò£Ì ¤Î¥Û¡¼¥à¥Ú¡¼¥¸¤Ë±¿ÍÑͽÄ꤬µ­ºÜ¤µ¤ì¤Æ¤¤¤Þ¤·¤¿¤Î¤Ç¤´¾Ò²ð¤·¤Þ¤¹¡¥
       ¡Ê http://www.jarl.or.jp/Japanese/3_Fuji/new/uy.htm ¡Ë
       
¡¡¡¡¡¡¡¡¡¡¡¡¡¡¡¡¡ö¡ö¡ö¡¡±¿ÍÑͽÄê¤Ë¤Ä¤¤¤Æ¡¡¡ö¡ö¡ö

¡¡¡¡¡¡£´·î£°£±Æü¡Ê·î¡Ë¡¡¡Á¡¡£¶·î£³£°Æü¡ÊÆü¡Ë¥¢¥Ê¥í¥°·Ï±¿ÍÑ 

¡¡¡¡¡ö¤Ê¤ª¡¤±¿ÍÑͽÄê¤ÏÅÔ¹ç¤Ë¤è¤ê¡¤Êѹ¹¤¹¤ë¤³¤È¤¬¤¢¤ê¤Þ¤¹¤Î¤Ç¡¤¤¢¤é¤«¤¸¤á¤´Î»¾µ´ê¤¤¤Þ¤¹¡£

¡¡¾È²ñÀè¡¡¡§¡¡lab@jarl.or.jp

¡¡ºÇ¿·¤Î¾ðÊó¤Ï¥Æ¥ì¥Û¥ó¥µ¡¼¥Ó¥¹¡Ê£°£³¡Ý£³£¹£´£²¡Ý£±£°£°£°¡Ë¤ò¤ªÊ¹¤­¤¯¤À¤µ¤¤¡£¡¡¡¡
¡¡°Ê¸å¤Î±¿ÍѤˤĤ­¤Þ¤·¤Æ¤ÏÊ¿À®£±£´Ç¯£··î¾å½Ü¤Ë¤ªÃΤ餻¤¤¤¿¤·¤Þ¤¹¡£¡¡¡¡¡¡¡¡¡¡¡¡¡¡ 
 ¡¡¡¡¡¡¡¡
-----------------------    £Æ£Ï¡Ý£²£°¡ÊJAS-£±£â¡ËÆ»Í×ÁÇ   -------------------------
 ¡¡
 ¡¡¢£ µ°Æ»Í×ÁÇ£± ¡§½Ðŵ¤Ï£Æ£Ï-£²£¹¡Ö¤Õ¤¸£³¹æ¡×¤ËƱ¤¸¡¥
  
FO-20
1 20480U 90013C   02219.95682330  .00000002  00000-0  67120-4 0 04343
2 20480 099.0207 214.5351 0540933 084.8130 281.4440 12.83319276585555
 
 ¡¡¢£ µ°Æ»Í×ÁÇ£² ¡§½Ðŵ¤Ï£Æ£Ï¡Ý£²£¹¡Ö¤Õ¤¸£³¹æ¡×¤ËƱ¤¸¡¥
               
Satellite: FO-20
Catalog number: 20480
Epoch time:      02219.95682330
Element set:    0434
Inclination:      099.0207 deg
RA of node:       214.5351 deg
Eccentricity:    0.0540933
Arg of perigee:   084.8130 deg
Mean anomaly:     281.4440 deg
Mean motion:   12.83319276 rev/day
Decay rate:        2.0e-08 rev/day^2
Epoch rev:           58555
Checksum:              280

--------------------------------------------------------------------------------¡¡
¡¡        ¢£ ¤Õ¤¸£²¹æ¡¿£Æ£Ï¡Ý£²£°/JAS-1£â ¢£  ¡¡   
            
¡¡¡¡¡¡¡¡¡¡¡¡¡¡¡¡¡¡¡¡¡Ö¤Õ¤¸£²¹æ¡×¡¡¸½¶·                                                                                  
             
   JAS-1b¡Ê¤Õ¤¸£²¹æ¡Ë¤Î£Ã£×¥Æ¥ì¥á¥È¥ê¿®¹æ¤Ë¡¤£±£¹£¹£·Ç¯£±£°·î£±£²Æü£±£²»þ¡Ê£Ê£Ó£Ô¡Ë¤Î
¡¡ÆüËܾå¶õÄ̲á»þ¡¤£³·å¤Î¿ô»ú¤¬·«¤êÊÖ¤µ¤ì¤ë¤Ï¤º¤¬£³¸Ä¤ÎĹ²»¤Î·«¤êÊÖ¤·¤È¤Ê¤Ã¤Æ¤¤¤ë¤È¤¤¤¦
¡¡°Û¾ï¤¬È¯¸«¤µ¤ì¤Þ¤·¤¿¡£¤³¤ÎÉÔ¶ñ¹ç¤Ï¼¡¤ÎÄ̲á»þ¤«¤é¤Ï²óÉü¤·¤Æ¤¤¤Þ¤·¤¿¤¬£±£³Æü£±£µ»þ£²£°Ê¬¤Î
¡¡Ä̲á»þ¤ËºÆ¤Ó´Ñ¬¤µ¤ì¤Þ¤·¤¿¡£¸½ºß¤Ï£Á£°¤ÎÁ÷¿®¤¬Â³¤¤¤Æ¤¤¤Þ¤¹¡£±ÒÀ±¤Î¥¢¥Ê¥í¥°·ÏÃæ·Ñ¥â¡¼¥É
¡¡Æ°ºî¤Ï°Û¾ï¤¬Ìµ¤¯¡¤Àµ¾ï»þ¤Î¥Æ¥ì¥á¥È¥êÆâÍƤ«¤é¤Ï±ÒÀ±¤ÎÆ°ºî¤Ë°Û¾ï¤Ïǧ¤á¤é¤ì¤Þ¤»¤ó¡£½¾¤Ã¤Æ¡¤
¡¡Ä¾¤Á¤Ë±ÒÀ±¤Î¥ß¥Ã¥·¥ç¥ó¤Ë±Æ¶Á¤¹¤ë¤³¤È¤Ï̵¤¤¤ÈͽÁÛ¤µ¤ì¤Þ¤¹¤Î¤Ç¡¤ÅöÌ̤ϥ¢¥Ê¥í¥°·ÏÃæ·Ñ
¡¡¥â¡¼¥É¤ò·Ñ³¤·¤Þ¤¹¡£±ÒÀ±¤Ï´û¤ËÂǤÁ¾å¤²¤Æ¤«¤é£·Ç¯£¸¥ö·î¤ò·Ð¤Æ¤ª¤ê¤Þ¤¹¤Î¤Ç¡¤º£¸å¤Ï´Æ»ë¤ò
¡¡¶¯²½¤¹¤ëͽÄê¤Ç¤¹¡£¥¢¥Þ¥Á¥å¥¢³Æ°Ì¤Î¥ì¥Ý¡¼¥È¤ò¤ªÂÔ¤Á¤·¤Þ¤¹¡£
¡¡-------------------------------------------------------------------------------- 
¡¡¡¡1997ǯ10·î14Æü¡¡00»þ35ʬ ³Îǧ¤Î¥Æ¥ì¥á¥È¥ê²» 151 KB ¡Ê£Á£°¡Ë 
¡¡¡¡1997ǯ10·î14Æü¡¡11»þ10ʬ ³Îǧ¤Î¥Æ¥ì¥á¥È¥ê²» 216 KB ¡Ê°Û¾ï¥­¡¼¥¤¥ó¥°¡Ë 

  °Ê¾å¡¡£Ê£Á£Ò£Ì¤Î¥Û¡Ý¥à¥Ú¡¼¥¸¤Î http://www.jarl.or.jp/Japanese/3_Fuji/new/fuji.htm

===================== FO-20¡¡¤Õ¤¸£²¹æ¡¡¤Î¥Æ¥ì¥á¥È¥ê´Ñ¬·ë²Ì¡¡====================

  £³·î£¸Æü¡Ê¶â¡Ë£±£¸¡§£±£¸¡ÊJST)¤Î´Ñ¬·ë²Ì¤Ç¤Ï¥Æ¥ì¥á¥È¥ê¤Ï¡¢°ÊÁ°´Ñ¬¤·¤¿Ã±°ì¼þÇÈ¿ô¤Î
Àµ¸¹ÇȤ¬¥É¥Ã¥×¥é¡¼¸ú²Ì¤Ç¼þÇÈ¿ô¤¬¤º¤ì¤Æ¤¤¤¯¤Î¤ß¤Î¾õÂ֤Ǥ·¤¿¡£
                                         
   =============   JAS-2 ¡Ê¤Õ¤¸£³¹æ¡Ë¤È¸½ºß¤Þ¤Ç¤Î¾ðÊó   ===========
  
  £Á¡¥ÅÅÏäˤè¤ë¤Õ¤¸£³¹æ¤Î±¿ÍѾðÊó
      ¼ÒÃÄË¡¿ÍÆüËÜ¥¢¥Þ¥Á¥å¥¢Ï¢ÌÁ¤Ë¤è¤ë¥µ¡¼¥Ó¥¹
           £Ô£Å£Ì ¡¥   £°£³¡Ý £³£¹£´£² ¡Ý £±£°£°£°
  £Â¡¥¥¢¥Þ¥Á¥å¥¢ÌµÀþ£Æ£Á£Ø¥µ¡¼¥Ó¥¹
      £Ê£Á£Ò£Ì¤Ë¤è¤ë¤Õ¤¸£³¹æ¤Îµ°Æ»¾ðÊó¡Ê¥ª¡¼¥Ó¥Ã¥È¥«¥ì¥ó¥À¡¼¡Ë
         £Æ£Á£Ø £Î£ï¡¥  £°£³¡Ý £³£²£³£³ ¡Ý£°£°£µ£µ
  £Ã¡¥£×£×£×¥Ö¥é¥¦¥¶¤Ç¾ðÊó¤ò´Êñ¤Ë¸«¤ì¤ë¿Í¤Î¤¿¤á¤Ë£Ê£Á£Ó¡Ý£²
     ¤Õ¤¸£³¹æ¤Î±ÒÀ±¤È¤·¤Æ¤Î±¿ÍѤµ¤ì¤ë¤Þ¤Ç¤Î̾Á°¡Ë¤Î³µÍס¢ÂǤÁ¾å¤²
     ¤Þ¤Ç¤Î¾õ¶·¡¢±¿ÍÑÃæ¤Ë¤ª¤±¤ë¾õ¶·¤òÀâÌÀ¤·¤¿¥Û¡¼¥à¥Ú¡¼¥¸¤ò¾Ò²ð¤·
     ¤Æ¤ª¤­¤Þ¤¹¡¥

    ­¡ ¼ÒÃÄË¡¿ÍÆüËÜ¥¢¥Þ¥Á¥å¥¢ÌµÀþÏ¢ÌÁ¡Ê£Ê£Á£Ò£Ì¡Ë¤Î¥Û¡¼¥à¥Ú¡¼¥¸

          http://www.jarl.or.jp/Japanese/3_Fuji/jasmenu.htm
 
    ­¢ ±§Ã賫ȯ»ö¶ÈÃġʣΣÁ£Ó£Ä£Á¡Ë¥Û¡¼¥à¥Ú¡¼¥¸ 
          http://www.nasda.go.jp/
         ÂǾ夲±ÒÀ±¡¡¡§Ãϵå´Ñ¬¥×¥é¥Ã¥È¥Õ¥©¡¼¥àµ»½Ñ±ÒÀ±¡ÊADEOS¡Ë 
                       ¥¢¥Þ¥Á¥å¥¢±ÒÀ±£³¹æ(JAS-2)
          http://spaceboy.nasda.go.jp/note/eisei/j/Eis15h_j.html#Eis15h_01_j
¡¡¡¡¡¡¡¡¡¡http://spaceboy.nasda.go.jp/note/eisei/j/Eis15i_j.html        

  £Ä¡¥£Ê£Á£Í£Ó£Á£Ô¤Ë¤è¤ëµ°Æ»¾ðÊó¤Î³èÍÑ
        JAMSAT¤Î¥Û¡¼¥à¥Ú¡¼¥¸¤Þ¤¿¤Ïjamsat¡Ýkeps¤Îµ°Æ»Í×ÁǤè¤ê
      ±ÒÀ±¤Îµ°Æ»¾ðÊó¤òÆÀ¤ë¡¥
     £Ê£Á£Í£Ó£Á£Ô¥Û¡¼¥à¥Ú¡¼¥¸
               £Õ£Ò£Ì    http://www.jamsat.or.jp
       ¾åµ­¥Û¡¼¥à¥Ú¡¼¥¸¤Ç¤Ï³ÆÃϤǹԤï¤ì¤ë¥¢¥Þ¥Á¥å¥¢ÄÌ¿®±ÒÀ±¤Ë´Ø¤¹¤ë
      ¥ß¥å¡¼¥Æ¥£¥ó¥°¤Î¤ªÃΤ餻¤äÀ¤³¦¤Î¥¢¥Þ¥Á¥å¥¢±ÒÀ±¤Ë´Ø¤¹¤ë¾ðÊó¤¬
      ËþºÜ¤µ¤ì¤Æ¤¤¤Þ¤¹¡¥

¡¡========================================================================  
¡¡    £Ê£Á£Í£Ó£Á£Ô¤Î¥á¥ó¥Ð¡¼¤Î¤´¶¨ÎϤˤè¤ê£Ê£È£¶£Í£Í£Å¡Ê¹â»³ ½¨Â¤¡Ë¤¬
    ¼¹É®¡¦ÊÔ½¸¤òôÅö¤·¤Æ¤ª¤ê¤Þ¤¹¡¥¤´»ØŦ¤Î°Õ¸«¡¢µ¿Ìä¤ä¤³¤Î¤è¤¦¤Ë¤·¤¿¤é
    ¤È¤¤¤¦¥¢¥¤¥Ç¥¢¤¬¤¢¤ê¤Þ¤·¤¿¤é¾®¤µ¤Ê¤³¤È¤Ç¤â¤«¤Þ¤¤¤Þ¤»¤ó¤Î¤Çµ¤·Ú¤Ë²¼
    µ­¥¢¥É¥ì¥¹¤Þ¤Ç¤´Ï¢Íí¤¯¤À¤µ¤¤¡¥£ê£á£í£ó£á£ô¡Ý£î£å£÷£ó¤«¤é£ê£á£ó£²
    £é£î£æ£ï¤Ø¤ÎžºÜ¤ò£Ê£È£´£Ð£È£×¶Éºä°æ¤µ¤ó¤ËôÅö¤·¤Æ夤¤Æ¤ª¤ê¤Þ¤¹¡¥  
                  E-mail : jh6mme@jamsat.or.jp : jh4phw@jamsat.or.jp
 ===============================   £Å£Î£Ä  ===============================